Time,TemperatureF,DewpointF,PressureIn,WindDirection,WindDirectionDegrees,WindSpeedMPH,WindSpeedGustMPH,Humidity,HourlyPrecipIn,Conditions,Clouds,dailyrainin,SoftwareType,DateUTC
2013-08-21 00:13:00,74.1,66.4,29.79,South,180,7.3,-999.0,77,-99.99,,,0.00,Acu-Link.com,2013-08-21 05:13:00,
2013-08-21 00:28:00,74.3,66.6,29.79,SE,135,8.9,-999.0,77,-99.99,,,0.00,Acu-Link.com,2013-08-21 05:28:00,
2013-08-21 00:43:00,74.3,66.6,29.79,South,180,7.8,-999.0,77,-99.99,,,0.00,Acu-Link.com,2013-08-21 05:43:00,
2013-08-21 00:58:00,74.1,66.0,29.79,SSW,202,8.3,-999.0,76,-99.99,,,0.00,Acu-Link.com,2013-08-21 05:58:00,
2013-08-21 01:13:00,73.9,65.8,29.80,ESE,112,10.9,-999.0,76,-99.99,,,0.00,Acu-Link.com,2013-08-21 06:13:00,
2013-08-21 01:28:00,73.2,65.5,29.79,SW,225,6.8,-999.0,77,-99.99,,,0.00,Acu-Link.com,2013-08-21 06:28:00,
2013-08-21 01:43:00,73.0,65.4,29.79,SSW,202,6.8,-999.0,77,-99.99,,,0.00,Acu-Link.com,2013-08-21 06:43:00,
2013-08-21 01:59:00,72.9,65.6,29.80,SSW,202,5.8,-999.0,78,-99.99,,,0.00,Acu-Link.com,2013-08-21 06:59:00,
2013-08-21 02:14:00,72.7,65.4,29.80,SW,225,6.8,-999.0,78,-99.99,,,0.00,Acu-Link.com,2013-08-21 07:14:00,
2013-08-21 02:29:00,72.5,65.2,29.79,SSW,202,7.3,-999.0,78,-99.99,,,0.00,Acu-Link.com,2013-08-21 07:29:00,
2013-08-21 02:44:00,72.1,64.9,29.80,SSW,202,7.3,-999.0,78,-99.99,,,0.00,Acu-Link.com,2013-08-21 07:44:00,
2013-08-21 02:59:00,72.1,64.9,29.79,SSW,202,9.4,-999.0,78,-99.99,,,0.00,Acu-Link.com,2013-08-21 07:59:00,
2013-08-21 03:15:00,72.0,64.8,29.79,SSE,157,8.3,-999.0,78,-99.99,,,0.00,Acu-Link.com,2013-08-21 08:15:00,
2013-08-21 03:30:00,71.8,64.6,29.79,SSW,202,6.3,-999.0,78,-99.99,,,0.00,Acu-Link.com,2013-08-21 08:30:00,
2013-08-21 03:45:00,71.8,64.6,29.79,SSW,202,6.3,-999.0,78,-99.99,,,0.00,Acu-Link.com,2013-08-21 08:45:00,
2013-08-21 04:01:00,71.8,64.6,29.79,South,180,7.3,-999.0,78,-99.99,,,0.00,Acu-Link.com,2013-08-21 09:01:00,
2013-08-21 04:16:00,71.6,64.4,29.79,SSW,202,6.8,-999.0,78,-99.99,,,0.00,Acu-Link.com,2013-08-21 09:16:00,
2013-08-21 04:31:00,71.4,64.5,29.79,SSW,202,7.3,-999.0,79,-99.99,,,0.00,Acu-Link.com,2013-08-21 09:31:00,
2013-08-21 04:46:00,70.9,64.1,29.79,SSE,157,5.8,-999.0,79,-99.99,,,0.00,Acu-Link.com,2013-08-21 09:46:00,
2013-08-21 05:01:00,70.5,64.0,29.79,SW,225,6.3,-999.0,80,-99.99,,,0.00,Acu-Link.com,2013-08-21 10:01:00,
2013-08-21 05:17:00,70.5,64.0,29.80,WSW,247,5.8,-999.0,80,-99.99,,,0.00,Acu-Link.com,2013-08-21 10:17:00,
2013-08-21 05:32:00,70.0,63.9,29.80,ESE,112,5.8,-999.0,81,-99.99,,,0.00,Acu-Link.com,2013-08-21 10:32:00,
2013-08-21 05:47:00,69.6,63.9,29.81,South,180,5.3,-999.0,82,-99.99,,,0.00,Acu-Link.com,2013-08-21 10:47:00,
2013-08-21 06:02:00,69.4,63.7,29.81,SW,225,3.7,-999.0,82,-99.99,,,0.00,Acu-Link.com,2013-08-21 11:02:00,
2013-08-21 06:17:00,69.4,63.7,29.82,South,180,4.2,-999.0,82,-99.99,,,0.00,Acu-Link.com,2013-08-21 11:17:00,
2013-08-21 06:32:00,68.9,63.5,29.82,SSE,157,4.2,-999.0,83,-99.99,,,0.00,Acu-Link.com,2013-08-21 11:32:00,
2013-08-21 06:47:00,68.9,63.5,29.82,SSE,157,4.2,-999.0,83,-99.99,,,0.00,Acu-Link.com,2013-08-21 11:47:00,
2013-08-21 07:02:00,69.3,63.9,29.82,SSE,157,4.2,-999.0,83,-99.99,,,0.00,Acu-Link.com,2013-08-21 12:02:00,
2013-08-21 07:17:00,69.4,63.7,29.83,SSW,202,3.7,-999.0,82,-99.99,,,0.00,Acu-Link.com,2013-08-21 12:17:00,
2013-08-21 07:32:00,70.2,64.1,29.82,SSW,202,4.2,-999.0,81,-99.99,,,0.00,Acu-Link.com,2013-08-21 12:32:00,
2013-08-21 07:47:00,71.1,64.6,29.82,SSW,202,6.3,-999.0,80,-99.99,,,0.00,Acu-Link.com,2013-08-21 12:47:00,
2013-08-21 08:03:00,72.1,64.9,29.83,SSW,202,7.3,-999.0,78,-99.99,,,0.00,Acu-Link.com,2013-08-21 13:03:00,
2013-08-21 08:18:00,73.0,65.0,29.84,SSW,202,4.7,-999.0,76,-99.99,,,0.00,Acu-Link.com,2013-08-21 13:18:00,
2013-08-21 08:33:00,74.3,65.8,29.84,SSW,202,5.8,-999.0,75,-99.99,,,0.00,Acu-Link.com,2013-08-21 13:33:00,
2013-08-21 08:48:00,74.7,65.5,29.84,South,180,7.3,-999.0,73,-99.99,,,0.00,Acu-Link.com,2013-08-21 13:48:00,
2013-08-21 09:03:00,75.4,65.7,29.83,SW,225,8.3,-999.0,72,-99.99,,,0.00,Acu-Link.com,2013-08-21 14:03:00,
2013-08-21 09:18:00,75.9,65.8,29.83,SSW,202,9.4,-999.0,71,-99.99,,,0.00,Acu-Link.com,2013-08-21 14:18:00,
2013-08-21 09:34:00,77.2,67.1,29.84,SSW,202,11.4,-999.0,71,-99.99,,,0.00,Acu-Link.com,2013-08-21 14:34:00,
2013-08-21 09:49:00,77.9,66.9,29.83,SSW,202,7.3,-999.0,69,-99.99,,,0.00,Acu-Link.com,2013-08-21 14:49:00,
2013-08-21 10:04:00,79.0,67.1,29.83,SSW,202,9.4,-999.0,67,-99.99,,,0.00,Acu-Link.com,2013-08-21 15:04:00,
2013-08-21 10:19:00,79.7,66.9,29.84,SSW,202,9.9,-999.0,65,-99.99,,,0.00,Acu-Link.com,2013-08-21 15:19:00,
2013-08-21 10:34:00,80.4,67.1,29.83,SSE,157,13.0,-999.0,64,-99.99,,,0.00,Acu-Link.com,2013-08-21 15:34:00,
2013-08-21 10:49:00,81.3,67.0,29.84,SW,225,13.5,-999.0,62,-99.99,,,0.00,Acu-Link.com,2013-08-21 15:49:00,
2013-08-21 11:04:00,82.2,67.4,29.83,SSW,202,10.9,-999.0,61,-99.99,,,0.00,Acu-Link.com,2013-08-21 16:04:00,
2013-08-21 11:19:00,82.9,67.6,29.82,SW,225,8.3,-999.0,60,-99.99,,,0.00,Acu-Link.com,2013-08-21 16:19:00,
2013-08-21 11:34:00,83.5,67.6,29.82,SE,135,11.9,-999.0,59,-99.99,,,0.00,Acu-Link.com,2013-08-21 16:34:00,
2013-08-21 11:50:00,84.0,68.1,29.82,SSW,202,8.9,-999.0,59,-99.99,,,0.00,Acu-Link.com,2013-08-21 16:50:00,
2013-08-21 12:05:00,85.1,68.6,29.83,WSW,247,5.8,-999.0,58,-99.99,,,0.00,Acu-Link.com,2013-08-21 17:05:00,
2013-08-21 12:20:00,85.8,69.3,29.82,SSW,202,9.9,-999.0,58,-99.99,,,0.00,Acu-Link.com,2013-08-21 17:20:00,
2013-08-21 12:36:00,86.9,69.8,29.82,South,180,8.9,-999.0,57,-99.99,,,0.00,Acu-Link.com,2013-08-21 17:36:00,
2013-08-21 12:51:00,87.3,69.7,29.81,SW,225,13.0,-999.0,56,-99.99,,,0.00,Acu-Link.com,2013-08-21 17:51:00,
2013-08-21 13:06:00,87.8,70.6,29.81,SSW,202,11.4,-999.0,57,-99.99,,,0.00,Acu-Link.com,2013-08-21 18:06:00,
2013-08-21 13:21:00,88.7,71.0,29.81,SW,225,10.4,-999.0,56,-99.99,,,0.00,Acu-Link.com,2013-08-21 18:21:00,
2013-08-21 13:36:00,88.9,71.1,29.81,SSW,202,11.4,-999.0,56,-99.99,,,0.00,Acu-Link.com,2013-08-21 18:36:00,
2013-08-21 13:51:00,89.6,71.3,29.81,SSW,202,10.9,-999.0,55,-99.99,,,0.00,Acu-Link.com,2013-08-21 18:51:00,
2013-08-21 14:06:00,90.3,72.4,29.80,SSE,157,6.8,-999.0,56,-99.99,,,0.00,Acu-Link.com,2013-08-21 19:06:00,
2013-08-21 14:21:00,89.8,69.8,29.80,SSW,202,13.0,-999.0,52,-99.99,,,0.00,Acu-Link.com,2013-08-21 19:21:00,
2013-08-21 14:36:00,90.1,70.1,29.80,South,180,9.4,-999.0,52,-99.99,,,0.00,Acu-Link.com,2013-08-21 19:36:00,
2013-08-21 14:52:00,90.7,71.7,29.79,South,180,13.0,-999.0,54,-99.99,,,0.00,Acu-Link.com,2013-08-21 19:52:00,
2013-08-21 15:07:00,91.2,71.1,29.80,SSW,202,11.4,-999.0,52,-99.99,,,0.00,Acu-Link.com,2013-08-21 20:07:00,
2013-08-21 15:22:00,91.2,71.1,29.79,SW,225,10.9,-999.0,52,-99.99,,,0.00,Acu-Link.com,2013-08-21 20:22:00,
2013-08-21 15:38:00,91.4,71.3,29.79,SW,225,11.4,-999.0,52,-99.99,,,0.00,Acu-Link.com,2013-08-21 20:38:00,
2013-08-21 15:53:00,91.6,72.0,29.79,SSW,202,10.4,-999.0,53,-99.99,,,0.00,Acu-Link.com,2013-08-21 20:53:00,
2013-08-21 16:08:00,91.6,71.4,29.78,SSW,202,8.9,-999.0,52,-99.99,,,0.00,Acu-Link.com,2013-08-21 21:08:00,
2013-08-21 16:23:00,91.8,71.6,29.78,SSE,157,8.3,-999.0,52,-99.99,,,0.00,Acu-Link.com,2013-08-21 21:23:00,
2013-08-21 16:38:00,91.4,71.8,29.78,SW,225,9.4,-999.0,53,-99.99,,,0.00,Acu-Link.com,2013-08-21 21:38:00,
2013-08-21 16:53:00,91.4,71.3,29.77,SSW,202,8.9,-999.0,52,-99.99,,,0.00,Acu-Link.com,2013-08-21 21:53:00,
2013-08-21 17:08:00,91.2,71.6,29.78,South,180,14.5,-999.0,53,-99.99,,,0.00,Acu-Link.com,2013-08-21 22:08:00,
2013-08-21 17:23:00,90.7,71.2,29.78,SW,225,9.4,-999.0,53,-99.99,,,0.00,Acu-Link.com,2013-08-21 22:23:00,
2013-08-21 17:39:00,90.7,71.2,29.78,SSW,202,13.0,-999.0,53,-99.99,,,0.00,Acu-Link.com,2013-08-21 22:39:00,
2013-08-21 17:54:00,90.3,71.4,29.78,South,180,6.3,-999.0,54,-99.99,,,0.00,Acu-Link.com,2013-08-21 22:54:00,
2013-08-21 18:09:00,90.0,72.7,29.77,SSW,202,7.8,-999.0,57,-99.99,,,0.00,Acu-Link.com,2013-08-21 23:09:00,
2013-08-21 18:24:00,89.1,72.4,29.77,South,180,4.7,-999.0,58,-99.99,,,0.00,Acu-Link.com,2013-08-21 23:24:00,
2013-08-21 18:39:00,88.5,71.3,29.77,SSW,202,6.3,-999.0,57,-99.99,,,0.00,Acu-Link.com,2013-08-21 23:39:00,
2013-08-21 18:55:00,88.3,72.1,29.77,SSW,202,4.7,-999.0,59,-99.99,,,0.00,Acu-Link.com,2013-08-21 23:55:00,
2013-08-21 19:10:00,87.3,72.7,29.77,South,180,4.2,-999.0,62,-99.99,,,0.00,Acu-Link.com,2013-08-22 00:10:00,
2013-08-21 19:25:00,86.0,71.4,29.77,South,180,4.2,-999.0,62,-99.99,,,0.00,Acu-Link.com,2013-08-22 00:25:00,
2013-08-21 19:40:00,84.0,70.5,29.77,SE,135,5.3,-999.0,64,-99.99,,,0.00,Acu-Link.com,2013-08-22 00:40:00,
2013-08-21 19:55:00,82.0,70.4,29.77,SE,135,4.7,-999.0,68,-99.99,,,0.00,Acu-Link.com,2013-08-22 00:55:00,
2013-08-21 20:10:00,80.2,69.9,29.78,South,180,3.7,-999.0,71,-99.99,,,0.00,Acu-Link.com,2013-08-22 01:10:00,
2013-08-21 20:26:00,78.8,69.4,29.78,SE,135,4.2,-999.0,73,-99.99,,,0.00,Acu-Link.com,2013-08-22 01:26:00,
2013-08-21 20:41:00,77.9,68.9,29.78,SSE,157,4.2,-999.0,74,-99.99,,,0.00,Acu-Link.com,2013-08-22 01:41:00,
2013-08-21 20:56:00,76.8,68.6,29.78,ESE,112,2.7,-999.0,76,-99.99,,,0.00,Acu-Link.com,2013-08-22 01:56:00,
2013-08-21 21:11:00,75.7,68.3,29.78,ENE,67,2.7,-999.0,78,-99.99,,,0.00,Acu-Link.com,2013-08-22 02:11:00,
2013-08-21 21:26:00,75.0,68.0,29.79,SSE,157,3.7,-999.0,79,-99.99,,,0.00,Acu-Link.com,2013-08-22 02:26:00,
2013-08-21 21:41:00,75.0,68.0,29.80,SE,135,4.2,-999.0,79,-99.99,,,0.00,Acu-Link.com,2013-08-22 02:41:00,
2013-08-21 21:56:00,75.0,68.0,29.80,SSE,157,4.2,-999.0,79,-99.99,,,0.00,Acu-Link.com,2013-08-22 02:56:00,
2013-08-21 22:12:00,74.5,67.9,29.79,ESE,112,4.2,-999.0,80,-99.99,,,0.00,Acu-Link.com,2013-08-22 03:12:00,
2013-08-21 22:27:00,73.2,67.4,29.77,SSE,157,3.2,-999.0,82,-99.99,,,0.00,Acu-Link.com,2013-08-22 03:27:00,
2013-08-21 22:42:00,73.2,67.4,29.77,SE,135,5.8,-999.0,82,-99.99,,,0.00,Acu-Link.com,2013-08-22 03:42:00,
2013-08-21 22:58:00,73.0,67.2,29.77,SE,135,4.7,-999.0,82,-99.99,,,0.00,Acu-Link.com,2013-08-22 03:58:00,
2013-08-21 23:13:00,72.7,66.9,29.78,ESE,112,3.7,-999.0,82,-99.99,,,0.00,Acu-Link.com,2013-08-22 04:13:00,
2013-08-21 23:28:00,72.5,67.0,29.79,East,90,3.7,-999.0,83,-99.99,,,0.00,Acu-Link.com,2013-08-22 04:28:00,
2013-08-21 23:43:00,72.1,66.6,29.81,ESE,112,2.7,-999.0,83,-99.99,,,0.00,Acu-Link.com,2013-08-22 04:43:00,
2013-08-21 23:58:00,72.0,66.5,29.80,ESE,112,2.7,-999.0,83,-99.99,,,0.00,Acu-Link.com,2013-08-22 04:58:00,